Location: Eastlake (historical)
(39.0077°N, 122.6678°W)
Time: 17:36:08
(UTC+00:00)

Cosmos 1812 - Pass Details

Date: 25 November 2020
Orbit: 517 x 520 km, 82.5° (Epoch: 23 January)

Event Time Altitude Azimuth Distance (km) Brightness Sun altitude
Rises 14:34:21 0° 350° (N) 2,647 6.0 -6.3°
Reaches altitude 10° 14:36:30 10° 348° (NNW) 1,755 5.1 -5.9°
Maximum altitude 14:40:20 72° 265° (W) 547 2.7 -5.2°
Drops below altitude 10° 14:44:09 10° 180° (S) 1,742 5.7 -4.5°
Sets 14:46:16 0° 179° (S) 2,625 6.6 -4.2°
